CW8192 Weather Reports


Display with metric or nautical units.
time (UTC)temp
F
wind
direction
speed
MPH
gust
MPH
rain 1hr
in
rain 24hr
in
rain mn
in
humidity
%
barometer
mb
20260509221204 54 197 5.0 13.0 0.00 0.44 0.44 95 1008.5
20260509220703 54 190 6.0 13.0 0.00 0.44 0.44 95 1008.6
20260509220204 54 187 3.0 9.0 0.00 0.44 0.44 96 1008.7
20260509215706 54 185 3.0 16.0 0.00 0.44 0.44 95 1008.6
20260509215205 54 196 3.0 9.0 0.00 0.44 0.44 96 1008.6
20260509214206 54 203 2.0 8.0 0.00 0.44 0.44 96 1008.8
20260509213706 54 193 6.0 13.0 0.00 0.44 0.44 95 1008.8
20260509213206 54 191 6.0 10.0 0.00 0.44 0.44 96 1008.8
20260509212205 54 214 4.0 9.0 0.00 0.44 0.44 95 1008.8
20260509211705 54 217 9.0 13.0 0.00 0.44 0.44 95 1008.8
20260509211206 54 205 3.0 12.0 0.00 0.44 0.44 94 1008.9
20260509210705 54 200 6.0 12.0 0.00 0.44 0.44 94 1008.8
20260509210206 54 203 4.0 7.0 0.00 0.44 0.44 94 1008.9
20260509205706 54 202 5.0 10.0 0.00 0.44 0.44 94 1008.9
20260509205206 54 204 6.0 13.0 0.00 0.44 0.44 94 1008.9
20260509204706 53 207 4.0 12.0 0.00 0.44 0.44 93 1009.1
20260509204206 53 197 6.0 12.0 0.00 0.44 0.44 93 1009.1
20260509203705 53 217 5.0 12.0 0.00 0.44 0.44 93 1009.2
20260509203206 53 159 4.0 9.0 0.00 0.44 0.44 93 1009.2
20260509202707 53 176 3.0 9.0 0.00 0.44 0.44 92 1009.3
20260509202207 53 164 3.0 8.0 0.00 0.44 0.44 92 1009.3
20260509201705 53 172 3.0 12.0 0.01 0.44 0.44 92 1009.4
20260509201206 52 203 5.0 10.0 0.01 0.44 0.44 92 1009.4
20260509200706 52 187 4.0 8.0 0.01 0.44 0.44 92 1009.7
20260509200206 52 184 5.0 12.0 0.02 0.44 0.44 92 1009.8
20260509195706 52 202 3.0 12.0 0.03 0.44 0.44 92 1009.8
20260509195205 52 181 5.0 12.0 0.03 0.44 0.44 92 1010.0
20260509194706 52 134 3.0 7.0 0.04 0.44 0.44 92 1009.9
20260509194206 52 203 3.0 12.0 0.04 0.44 0.44 92 1010.0
20260509193705 52 150 6.0 12.0 0.05 0.44 0.44 92 1010.0
20260509193206 52 184 5.0 12.0 0.05 0.44 0.44 92 1010.0
20260509192705 52 177 6.0 12.0 0.06 0.44 0.44 92 1010.1
20260509192205 52 180 5.0 9.0 0.06 0.44 0.44 92 1010.1
20260509191705 51 189 3.0 9.0 0.06 0.43 0.43 92 1010.2
20260509191206 51 202 2.0 7.0 0.06 0.43 0.43 92 1010.3
20260509190205 51 188 3.0 6.0 0.06 0.42 0.42 92 1010.4
20260509185706 51 182 4.0 9.0 0.05 0.41 0.41 92 1010.5
20260509185206 51 203 3.0 6.0 0.06 0.41 0.41 92 1010.4
20260509184205 51 208 3.0 6.0 0.05 0.40 0.40 92 1010.5
20260509183706 51 191 4.0 8.0 0.04 0.39 0.39 92 1010.4
20260509183205 51 177 3.0 9.0 0.05 0.39 0.39 92 1010.4
20260509181205 50 166 3.0 10.0 0.04 0.37 0.37 93 1010.4
20260509180706 50 155 3.0 9.0 0.03 0.36 0.36 93 1010.3
20260509180206 50 164 5.0 10.0 0.04 0.36 0.36 93 1010.3
20260509175705 50 171 5.0 10.0 0.04 0.36 0.36 93 1010.3
20260509175205 50 171 3.0 8.0 0.03 0.35 0.35 93 1010.4
20260509174707 50 155 4.0 13.0 0.03 0.35 0.35 93 1010.4
20260509174205 50 188 3.0 10.0 0.04 0.35 0.35 93 1010.5
20260509173706 50 167 5.0 10.0 0.04 0.35 0.35 93 1010.5
20260509173206 50 185 3.0 12.0 0.03 0.34 0.34 93 1010.6
20260509172706 49 154 6.0 13.0 0.03 0.34 0.34 93 1010.6
20260509171705 49 186 6.0 10.0 0.03 0.33 0.33 93 1010.6
20260509171205 49 185 3.0 8.0 0.03 0.33 0.33 93 1010.6
20260509170705 49 177 3.0 7.0 0.04 0.33 0.33 93 1010.7
20260509170206 49 182 4.0 10.0 0.03 0.32 0.32 93 1010.7
20260509165705 49 155 3.0 7.0 0.04 0.32 0.32 94 1010.7
20260509165205 49 141 4.0 10.0 0.04 0.32 0.32 94 1010.8
20260509164706 49 149 6.0 9.0 0.04 0.32 0.32 93 1010.9
20260509164206 49 159 4.0 8.0 0.04 0.31 0.31 93 1011.0
20260509163706 49 172 5.0 10.0 0.04 0.31 0.31 93 1011.0
20260509163205 49 141 4.0 8.0 0.05 0.31 0.31 93 1011.1
20260509162205 49 147 2.0 5.0 0.05 0.31 0.31 92 1011.3
20260509161705 49 177 3.0 5.0 0.05 0.30 0.30 93 1011.5
20260509160706 49 192 1.0 3.0 0.05 0.29 0.29 92 1011.6
20260509160205 49 188 1.0 2.0 0.05 0.29 0.29 92 1011.6
20260509155705 49 151 1.0 3.0 0.05 0.28 0.28 92 1011.6
20260509155205 48 123 1.0 3.0 0.05 0.28 0.28 92 1011.7
20260509154706 48 199 2.0 5.0 0.06 0.28 0.28 93 1011.8
20260509154206 48 176 2.0 3.0 0.06 0.27 0.27 92 1011.9
20260509153707 48 176 0.0 3.0 0.07 0.27 0.27 92 1012.0
20260509153206 48 192 1.0 2.0 0.07 0.26 0.26 92 1012.0
20260509152705 48 207 1.0 3.0 0.08 0.26 0.26 92 1012.1
20260509152205 47 208 1.0 3.0 0.09 0.26 0.26 92 1012.3
20260509151706 47 227 1.0 3.0 0.09 0.25 0.25 92 1012.3
20260509151206 47 195 1.0 3.0 0.10 0.25 0.25 92 1012.3
20260509150706 48 236 2.0 3.0 0.09 0.24 0.24 92 1012.4
20260509150205 48 236 2.0 3.0 0.10 0.24 0.24 91 1012.3
20260509145706 48 229 2.0 3.0 0.10 0.23 0.23 92 1012.3
20260509145206 47 217 1.0 3.0 0.11 0.23 0.23 92 1012.1
20260509144705 48 234 1.0 3.0 0.11 0.22 0.22 92 1012.2
20260509144205 47 186 0.0 0.0 0.11 0.21 0.21 92 1012.1
20260509143706 47 216 0.0 1.0 0.11 0.20 0.20 92 1012.0
20260509143205 47 221 1.0 3.0 0.11 0.19 0.19 92 1012.0
20260509142706 47 223 1.0 3.0 0.10 0.18 0.18 92 1012.1
20260509142207 47 226 2.0 3.0 0.10 0.17 0.17 92 1012.1
20260509141706 47 261 0.0 0.0 0.09 0.16 0.16 92 1012.1
20260509140705 48 240 1.0 3.0 0.09 0.15 0.15 92 1012.1
20260509140205 47 210 0.0 3.0 0.08 0.14 0.14 92 1012.0
20260509135706 47 206 0.0 0.0 0.07 0.13 0.13 92 1012.0
20260509135205 47 206 0.0 1.0 0.06 0.12 0.12 92 1011.9
20260509134706 47 186 0.0 2.0 0.06 0.11 0.11 92 1011.9
20260509133705 47 184 0.0 2.0 0.05 0.09 0.09 92 1011.8
20260509133205 47 157 1.0 3.0 0.05 0.08 0.08 92 1011.8
20260509132705 47 131 2.0 3.0 0.06 0.08 0.08 92 1011.7
20260509131705 47 117 2.0 3.0 0.06 0.07 0.07 93 1011.7
20260509131206 47 131 3.0 5.0 0.06 0.07 0.07 93 1011.8
20260509130706 47 140 3.0 7.0 0.06 0.06 0.06 93 1011.8
20260509130206 47 138 4.0 8.0 0.06 0.06 0.06 94 1012.0
20260509125706 47 150 3.0 3.0 0.06 0.06 0.06 94 1012.1
20260509125205 47 154 2.0 8.0 0.06 0.06 0.06 94 1012.1
20260509124705 47 162 2.0 7.0 0.05 0.05 0.05 95 1012.1
20260509123705 47 159 3.0 7.0 0.04 0.04 0.04 95 1012.0
20260509123205 47 182 3.0 6.0 0.03 0.03 0.03 95 1012.2
20260509122705 47 169 4.0 6.0 0.02 0.02 0.02 95 1012.2
20260509122206 47 184 3.0 8.0 0.02 0.02 0.02 95 1012.2
20260509121206 47 206 3.0 5.0 0.01 0.01 0.01 95 1012.2
20260509120706 47 200 2.0 5.0 0.00 0.00 0.00 95 1012.3
20260509115705 47 187 3.0 6.0 0.00 0.00 0.00 94 1012.2
20260509115205 47 197 3.0 6.0 0.00 0.00 0.00 94 1012.0
20260509114705 47 204 2.0 5.0 0.00 0.00 0.00 94 1012.0
20260509113706 47 176 2.0 7.0 0.00 0.00 0.00 93 1012.0
20260509113206 47 181 5.0 9.0 0.00 0.00 0.00 93 1012.2
20260509112706 47 178 3.0 8.0 0.00 0.00 0.00 93 1012.1
20260509112205 46 191 4.0 9.0 0.00 0.00 0.00 93 1012.2
20260509111706 46 163 3.0 6.0 0.00 0.00 0.00 93 1012.2
20260509111205 46 196 4.0 9.0 0.00 0.00 0.00 94 1012.1
20260509110205 45 159 6.0 9.0 0.00 0.00 0.00 95 1012.0
20260509105705 45 172 5.0 10.0 0.00 0.00 0.00 95 1012.1
20260509105205 44 134 6.0 12.0 0.00 0.00 0.00 95 1012.0
20260509104205 44 134 4.0 7.0 0.00 0.00 0.00 95 1012.0
20260509102706 44 132 3.0 3.0 0.00 0.00 0.00 94 1012.2
20260509101206 44 176 1.0 3.0 0.00 0.00 0.00 93 1012.6
20260509100705 44 162 2.0 6.0 0.00 0.00 0.00 94 1012.4
20260509100205 44 157 2.0 6.0 0.00 0.00 0.00 94 1012.5
20260509095705 43 147 5.0 7.0 0.00 0.00 0.00 94 1012.6
20260509095205 43 128 6.0 9.0 0.00 0.00 0.00 94 1012.6
20260509094705 43 122 5.0 8.0 0.00 0.00 0.00 93 1012.5
20260509093206 44 153 3.0 5.0 0.00 0.00 0.00 92 1012.5
20260509092705 44 137 3.0 6.0 0.00 0.00 0.00 91 1012.5
20260509091705 44 150 3.0 8.0 0.00 0.00 0.00 90 1012.8
20260509091205 43 164 4.0 12.0 0.00 0.00 0.00 92 1012.7
20260509090705 41 206 5.0 9.0 0.00 0.00 0.00 94 1012.7
20260509090206 39 184 3.0 7.0 0.00 0.00 0.00 95 1012.7
20260509085706 39 141 2.0 3.0 0.00 0.00 0.00 95 1012.8
20260509085206 39 160 1.0 3.0 0.00 0.00 0.00 95 1012.7
20260509084205 39 146 0.0 3.0 0.00 0.00 0.00 95 1012.7
20260509083706 39 161 2.0 3.0 0.00 0.00 0.00 95 1012.8
20260509083205 39 130 2.0 3.0 0.00 0.00 0.00 95 1012.7
20260509082205 38 132 1.0 2.0 0.00 0.00 0.00 95 1012.8
20260509081706 38 234 0.0 2.0 0.00 0.00 0.00 95 1012.8
20260509080705 38 221 1.0 3.0 0.00 0.00 0.00 94 1012.6
20260509080205 37 184 0.0 0.0 0.00 0.00 0.00 95 1012.5
20260509075705 37 163 0.0 0.0 0.00 0.00 0.00 95 1012.4
20260509075205 37 101 0.0 0.0 0.00 0.00 0.00 95 1012.4
20260509074706 36 101 0.0 0.0 0.00 0.00 0.00 95 1012.3
20260509074205 36 101 0.0 1.0 0.00 0.00 0.00 95 1012.3
20260509073705 36 103 0.0 1.0 0.00 0.00 0.00 95 1012.2
20260509073206 36 111 0.0 0.0 0.00 0.00 0.00 95 1012.3
20260509072205 36 138 0.0 2.0 0.00 0.00 0.00 95 1012.3
20260509071705 36 109 1.0 2.0 0.00 0.00 0.00 95 1012.2
20260509071205 36 174 1.0 2.0 0.00 0.00 0.00 95 1012.2
20260509070205 36 134 2.0 3.0 0.00 0.00 0.00 95 1012.2
20260509065705 36 128 2.0 3.0 0.00 0.00 0.00 95 1012.2
20260509065205 36 114 1.0 3.0 0.00 0.00 0.00 95 1012.3
20260509064705 36 108 1.0 2.0 0.00 0.00 0.00 95 1012.3
20260509063705 37 106 1.0 2.0 0.00 0.00 0.00 96 1012.2
20260509063206 37 106 0.0 0.0 0.00 0.00 0.00 95 1012.3
20260509062706 37 106 0.0 0.0 0.00 0.00 0.00 95 1012.4
20260509062205 37 106 0.0 0.0 0.00 0.00 0.00 95 1012.4
20260509061706 37 106 1.0 2.0 0.00 0.00 0.00 95 1012.5
20260509061205 37 107 1.0 2.0 0.00 0.00 0.00 94 1012.6
20260509060706 37 113 1.0 2.0 0.00 0.00 0.00 94 1012.6
20260509060205 38 93 1.0 2.0 0.00 0.00 0.00 93 1012.6
20260509055705 38 96 1.0 3.0 0.00 0.00 0.00 93 1012.7
20260509055205 38 131 1.0 2.0 0.00 0.00 0.00 93 1012.8
20260509054205 38 152 2.0 3.0 0.00 0.00 0.00 93 1012.9
20260509053705 39 194 1.0 3.0 0.00 0.00 0.00 94 1012.9
20260509053205 39 123 0.0 2.0 0.00 0.00 0.00 94 1012.8
20260509052705 39 122 1.0 2.0 0.00 0.00 0.00 94 1012.8
20260509052205 39 94 0.0 2.0 0.00 0.00 0.00 94 1012.8
20260509051705 39 125 1.0 2.0 0.00 0.00 0.00 94 1012.9
20260509050205 39 64 1.0 3.0 0.00 0.00 0.00 95 1013.0
20260509045706 39 150 1.0 3.0 0.00 0.00 0.00 99 1012.9
20260509044205 38 119 1.0 2.0 0.00 0.00 0.00 95 1013.0
20260509043205 38 150 3.0 3.0 0.00 0.00 0.00 95 1013.0
20260509042706 38 175 1.0 3.0 0.00 0.00 0.00 95 1013.1
20260509041705 37 118 1.0 2.0 0.00 0.00 0.00 95 1013.0
20260509041205 37 151 1.0 2.0 0.00 0.00 0.00 95 1012.9
20260509040705 37 143 1.0 3.0 0.00 0.00 0.00 94 1012.8
20260509035705 37 172 1.0 3.0 0.00 0.00 0.00 94 1012.8
20260509035205 37 146 2.0 3.0 0.00 0.00 0.00 94 1012.7
20260509034205 37 121 2.0 3.0 0.00 0.00 0.00 94 1012.7
20260509033705 37 139 3.0 3.0 0.00 0.00 0.00 94 1012.7
20260509033206 37 127 2.0 5.0 0.00 0.00 0.00 93 1012.6
20260509032705 37 138 2.0 3.0 0.00 0.00 0.00 93 1012.7
20260509032205 37 139 3.0 3.0 0.00 0.00 0.00 92 1012.6
20260509030705 38 130 2.0 3.0 0.00 0.00 0.00 92 1012.7
20260509030205 38 125 2.0 3.0 0.00 0.00 0.00 92 1012.8
20260509025705 38 128 2.0 3.0 0.00 0.00 0.00 92 1012.8
20260509024705 38 120 2.0 3.0 0.00 0.00 0.00 91 1012.8
20260509024205 38 115 2.0 3.0 0.00 0.00 0.00 91 1012.9
20260509023205 38 146 0.0 3.0 0.00 0.00 0.00 90 1012.8
20260509022705 39 159 1.0 3.0 0.00 0.00 0.00 89 1012.8
20260509022205 39 135 3.0 3.0 0.00 0.00 0.00 89 1012.7
20260509021705 39 142 2.0 5.0 0.00 0.00 0.00 89 1012.7
20260509021205 39 143 2.0 3.0 0.00 0.00 0.00 89 1012.8
20260509020705 39 139 2.0 3.0 0.00 0.00 0.00 88 1012.7
20260509020205 40 128 3.0 3.0 0.00 0.00 0.00 88 1012.6
20260509015205 40 130 2.0 3.0 0.00 0.00 0.00 86 1012.6
20260509014705 40 129 2.0 3.0 0.00 0.00 0.00 85 1012.5
20260509014205 41 160 0.0 2.0 0.00 0.00 0.00 84 1012.5
20260509013705 41 150 1.0 3.0 0.00 0.00 0.00 84 1012.4
20260509013205 41 120 1.0 3.0 0.00 0.00 0.00 84 1012.3
20260509012206 41 197 0.0 1.0 0.00 0.00 0.00 81 1012.2
20260509011205 43 200 1.0 2.0 0.00 0.00 0.00 78 1012.1
20260509010704 44 315 0.0 0.0 0.00 0.00 0.00 76 1012.0
20260509010205 45 287 0.0 0.0 0.00 0.00 0.00 75 1011.9
20260509005705 45 287 0.0 0.0 0.00 0.00 0.00 75 1011.8
20260509005205 45 287 0.0 0.0 0.00 0.00 0.00 73 1011.6
20260509004705 46 287 0.0 0.0 0.00 0.00 0.00 73 1011.5
20260509004205 46 287 0.0 0.0 0.00 0.00 0.00 72 1011.5
20260509003705 47 287 0.0 0.0 0.00 0.00 0.00 72 1011.5
20260509003206 47 287 0.0 2.0 0.00 0.00 0.00 72 1011.4
20260509002204 48 287 1.0 2.0 0.00 0.00 0.00 69 1011.4
20260509001705 48 287 1.0 2.0 0.00 0.00 0.00 67 1011.3
20260509001205 48 287 1.0 2.0 0.00 0.00 0.00 66 1011.2
20260509000205 49 302 1.0 3.0 0.00 0.00 0.00 64 1011.2
20260508235705 49 291 1.0 2.0 0.00 0.00 0.00 65 1011.1
20260508235205 49 304 1.0 3.0 0.00 0.00 0.00 65 1011.1
20260508234705 49 280 3.0 6.0 0.00 0.00 0.00 65 1011.1
20260508234204 50 293 3.0 6.0 0.00 0.00 0.00 65 1011.0
20260508233705 50 280 3.0 3.0 0.00 0.00 0.00 64 1011.0
20260508233205 50 286 2.0 3.0 0.00 0.00 0.00 64 1010.9
20260508232705 50 283 2.0 3.0 0.00 0.00 0.00 63 1010.9
20260508232205 50 268 2.0 3.0 0.00 0.00 0.00 62 1010.8
20260508231705 51 296 3.0 8.0 0.00 0.00 0.00 62 1010.8
20260508231205 51 280 5.0 8.0 0.00 0.00 0.00 62 1010.8
20260508230705 51 290 4.0 12.0 0.00 0.00 0.00 61 1010.9
20260508230205 51 287 5.0 9.0 0.00 0.00 0.00 61 1010.8
20260508225705 52 277 7.0 10.0 0.00 0.00 0.00 60 1010.8
20260508225205 52 274 9.0 12.0 0.00 0.00 0.00 60 1010.7
20260508224705 52 282 6.0 10.0 0.00 0.00 0.00 61 1010.7
20260508224205 52 278 6.0 9.0 0.00 0.00 0.00 59 1010.6
20260508223705 53 284 10.0 15.0 0.00 0.00 0.00 60 1010.5
20260508223205 53 277 8.0 13.0 0.00 0.00 0.00 61 1010.4
20260508222706 53 270 5.0 8.0 0.00 0.00 0.00 61 1010.4
20260508222205 53 275 6.0 12.0 0.00 0.00 0.00 60 1010.3
20260508221704 54 293 8.0 12.0 0.00 0.00 0.00 62 1010.4